Location: Belvedere Heights
(33.9836°N, 117.3109°W)
Time: 16:57:19
(UTC+00:00)

MOZHAYETS 4 - Visible Passes

Search period start: 28 May 2024 00:00
Search period end: 07 June 2024 00:00
Orbit: 652 x 670 km, 98.3° (Epoch: 28 May)

Date Brightness Start Highest point End Pass type
(mag) Time Alt. Az. Time Alt. Az. Time Alt. Az.
28 May 8.0 11:08:17 10° SSE 11:12:48 70° ENE 11:17:19 10° N visible
29 May 10.6 10:04:25 10° E 10:06:24 13° ENE 10:08:23 10° NE visible
29 May 7.8 11:38:23 10° S 11:42:48 51° W 11:47:14 10° NNW visible
30 May 9.8 10:32:21 10° SE 10:36:07 26° ENE 10:39:54 10° NNE visible
30 May 8.9 12:09:18 10° SSW 12:12:55 23° W 12:16:33 10° NW visible
31 May 8.3 11:01:32 10° SSE 11:05:58 57° ENE 11:10:25 10° N visible
01 Jun 10.8 09:58:45 10° ENE 09:59:38 10° ENE 10:00:29 10° NE visible
01 Jun 7.7 11:31:27 10° S 11:35:56 63° WSW 11:40:25 10° NNW visible
02 Jun 10.1 10:25:50 10° ESE 10:29:19 22° ENE 10:32:47 10° NNE visible
02 Jun 8.6 12:02:08 10° SSW 12:06:01 28° W 12:09:54 10° NW visible
03 Jun 8.7 10:54:47 10° SSE 10:59:07 47° ENE 11:03:27 10° N visible
04 Jun 7.6 11:24:31 10° S 11:29:02 77° WSW 11:33:34 10° NNW visible
05 Jun 10.3 10:19:21 10° ESE 10:22:28 19° ENE 10:25:35 10° NNE visible
05 Jun 8.4 11:55:00 10° SSW 11:59:04 34° W 12:03:11 10° NNW visible
06 Jun 9.1 10:48:03 10° SE 10:52:14 39° ENE 10:56:25 10° N visible
